• In Österreich
  • Länderverzeichnis
  • Für 7 Tage
  • Wassertemperatur
  • Satellitenkarten
  • Wetterkarte
  • News
  • Widgets
  • user-avatar
    Anmelden

    Stündliche Wetter Adelaide

    Heute, 25 Februar, Sonntag

    Zeit Temperatur Niederschläge Wind Luftdruck Luftfeuchtigkeit
    00:00 +19°C° 0 mm 4 m/S 755 mmHg 75%
    01:00 +19°C° 0 mm 4 m/S 755 mmHg 75%
    02:00 +19°C° 0 mm 4 m/S 755 mmHg 75%
    03:00 +18°C° 0 mm 4 m/S 755 mmHg 76%
    04:00 +18°C° 0 mm 4 m/S 756 mmHg 76%
    05:00 +18°C° 0 mm 4 m/S 756 mmHg 75%
    06:00 +17°C° 0 mm 4 m/S 756 mmHg 75%
    07:00 +19°C° 0 mm 4 m/S 757 mmHg 68%
    08:00 +20°C° 0 mm 4 m/S 757 mmHg 62%
    09:00 +21°C° 0 mm 5 m/S 757 mmHg 55%
    10:00 +22°C° 0 mm 5 m/S 757 mmHg 52%
    11:00 +23°C° 0 mm 5 m/S 757 mmHg 48%
    12:00 +25°C° 0 mm 5 m/S 757 mmHg 44%
    13:00 +24°C° 0 mm 6 m/S 756 mmHg 44%
    14:00 +24°C° 0 mm 6 m/S 756 mmHg 44%
    15:00 +24°C° 0 mm 7 m/S 756 mmHg 44%
    16:00 +22°C° 0 mm 7 m/S 756 mmHg 49%
    17:00 +21°C° 0 mm 7 m/S 757 mmHg 53%
    18:00 +20°C° 0 mm 7 m/S 757 mmHg 57%
    19:00 +19°C° 0 mm 6 m/S 757 mmHg 61%
    20:00 +17°C° 0 mm 6 m/S 758 mmHg 65%
    21:00 +17°C° 0 mm 5 m/S 758 mmHg 69%
    22:00 +16°C° 0 mm 5 m/S 758 mmHg 70%
    23:00 +17°C° 0 mm 4 m/S 758 mmHg 71%

    Morgen, 26 Februar, Montag

    Zeit Temperatur Niederschläge Wind Luftdruck Luftfeuchtigkeit
    00:00 +17°C° 0 mm 4 m/S 758 mmHg 72%
    01:00 +17°C° 0 mm 3 m/S 758 mmHg 71%
    02:00 +16°C° 0 mm 3 m/S 758 mmHg 69%
    03:00 +16°C° 0 mm 3 m/S 757 mmHg 68%
    04:00 +16°C° 0 mm 3 m/S 757 mmHg 68%
    05:00 +16°C° 0 mm 3 m/S 758 mmHg 68%
    06:00 +14°C° 0 mm 3 m/S 758 mmHg 68%
    07:00 +17°C° 0 mm 2 m/S 758 mmHg 60%
    08:00 +19°C° 0 mm 2 m/S 758 mmHg 51%
    09:00 +21°C° 0 mm 2 m/S 758 mmHg 43%
    10:00 +24°C° 0 mm 2 m/S 758 mmHg 38%
    11:00 +26°C° 0 mm 2 m/S 758 mmHg 33%
    12:00 +27°C° 0 mm 2 m/S 757 mmHg 28%
    13:00 +28°C° 0 mm 3 m/S 757 mmHg 28%
    14:00 +29°C° 0 mm 3 m/S 756 mmHg 27%
    15:00 +29°C° 0 mm 3 m/S 755 mmHg 27%
    16:00 +28°C° 0 mm 3 m/S 755 mmHg 30%
    17:00 +27°C° 0 mm 3 m/S 755 mmHg 32%
    18:00 +26°C° 0 mm 3 m/S 755 mmHg 35%
    19:00 +25°C° 0 mm 3 m/S 756 mmHg 40%
    20:00 +24°C° 0 mm 3 m/S 756 mmHg 44%
    21:00 +21°C° 0 mm 2 m/S 756 mmHg 49%
    22:00 +21°C° 0 mm 2 m/S 756 mmHg 49%
    23:00 +21°C° 0 mm 2 m/S 756 mmHg 49%

    übermorgen, 27 Februar, Dienstag

    Zeit Temperatur Niederschläge Wind Luftdruck Luftfeuchtigkeit
    00:00 +20°C° 0 mm 2 m/S 756 mmHg 49%
    01:00 +21°C° 0 mm 2 m/S 755 mmHg 47%
    02:00 +21°C° 0 mm 2 m/S 755 mmHg 46%
    03:00 +21°C° 0 mm 2 m/S 754 mmHg 44%
    04:00 +21°C° 0 mm 3 m/S 755 mmHg 44%
    05:00 +21°C° 0 mm 3 m/S 755 mmHg 44%
    06:00 +22°C° 0 mm 3 m/S 755 mmHg 43%
    07:00 +25°C° 0 mm 4 m/S 755 mmHg 39%
    08:00 +28°C° 0 mm 4 m/S 755 mmHg 34%
    09:00 +32°C° 0 mm 5 m/S 754 mmHg 29%
    10:00 +33°C° 0 mm 5 m/S 754 mmHg 26%
    11:00 +35°C° 0 mm 5 m/S 753 mmHg 23%
    12:00 +36°C° 0 mm 4 m/S 753 mmHg 21%
    13:00 +36°C° 0 mm 4 m/S 752 mmHg 20%
    14:00 +37°C° 0 mm 4 m/S 751 mmHg 19%
    15:00 +37°C° 0 mm 4 m/S 751 mmHg 18%
    16:00 +36°C° 0 mm 4 m/S 751 mmHg 18%
    17:00 +35°C° 0 mm 3 m/S 751 mmHg 19%
    18:00 +34°C° 0 mm 3 m/S 750 mmHg 19%
    19:00 +33°C° 0 mm 4 m/S 751 mmHg 22%
    20:00 +30°C° 0 mm 5 m/S 752 mmHg 25%
    21:00 +29°C° 0 mm 5 m/S 752 mmHg 27%
    22:00 +27°C° 0 mm 6 m/S 753 mmHg 44%
    23:00 +24°C° 0 mm 6 m/S 753 mmHg 60%

    28 Februar, Mittwoch

    Zeit Temperatur Niederschläge Wind Luftdruck Luftfeuchtigkeit
    00:00 +22°C° 0 mm 7 m/S 754 mmHg 76%
    01:00 +21°C° 0 mm 7 m/S 754 mmHg 74%
    02:00 +20°C° 0 mm 6 m/S 754 mmHg 72%
    03:00 +20°C° 0 mm 6 m/S 755 mmHg 70%
    04:00 +19°C° 0 mm 5 m/S 755 mmHg 69%
    05:00 +19°C° 0 mm 5 m/S 756 mmHg 67%
    06:00 +19°C° 0 mm 4 m/S 757 mmHg 66%
    07:00 +20°C° 0 mm 4 m/S 757 mmHg 62%
    08:00 +21°C° 0 mm 5 m/S 758 mmHg 59%
    09:00 +22°C° 0 mm 5 m/S 758 mmHg 55%
    10:00 +23°C° 0 mm 5 m/S 758 mmHg 52%
    11:00 +25°C° 0 mm 5 m/S 758 mmHg 49%
    12:00 +26°C° 0 mm 5 m/S 758 mmHg 45%
    13:00 +26°C° 0 mm 5 m/S 758 mmHg 45%
    14:00 +26°C° 0 mm 6 m/S 758 mmHg 45%
    15:00 +26°C° 0 mm 6 m/S 758 mmHg 45%
    16:00 +23°C° 0 mm 6 m/S 758 mmHg 49%
    17:00 +22°C° 0 mm 6 m/S 759 mmHg 54%
    18:00 +21°C° 0 mm 6 m/S 759 mmHg 58%
    19:00 +20°C° 0 mm 6 m/S 760 mmHg 61%
    20:00 +19°C° 0 mm 6 m/S 761 mmHg 65%
    21:00 +17°C° 0 mm 5 m/S 761 mmHg 68%
    22:00 +17°C° 0 mm 5 m/S 761 mmHg 69%
    23:00 +17°C° 0 mm 5 m/S 761 mmHg 71%

    1 März, Donnerstag

    Zeit Temperatur Niederschläge Wind Luftdruck Luftfeuchtigkeit
    00:00 +16°C° 0 mm 5 m/S 761 mmHg 73%
    01:00 +17°C° 0 mm 4 m/S 760 mmHg 74%
    02:00 +17°C° 0 mm 4 m/S 760 mmHg 75%
    03:00 +16°C° 0 mm 3 m/S 760 mmHg 77%
    04:00 +16°C° 0 mm 3 m/S 760 mmHg 77%
    05:00 +16°C° 0 mm 3 m/S 761 mmHg 77%
    06:00 +15°C° 0 mm 4 m/S 761 mmHg 77%
    07:00 +18°C° 0 mm 4 m/S 761 mmHg 69%
    08:00 +19°C° 0 mm 4 m/S 761 mmHg 62%
    09:00 +21°C° 0 mm 4 m/S 761 mmHg 54%
    10:00 +22°C° 0 mm 4 m/S 761 mmHg 49%
    11:00 +24°C° 0 mm 3 m/S 760 mmHg 45%
    12:00 +26°C° 0 mm 3 m/S 760 mmHg 40%
    13:00 +26°C° 0 mm 4 m/S 759 mmHg 40%
    14:00 +27°C° 0 mm 4 m/S 759 mmHg 39%
    15:00 +27°C° 0 mm 5 m/S 758 mmHg 39%
    16:00 +26°C° 0 mm 5 m/S 758 mmHg 45%
    17:00 +25°C° 0 mm 5 m/S 759 mmHg 51%
    18:00 +22°C° 0 mm 6 m/S 759 mmHg 57%
    19:00 +21°C° 0 mm 6 m/S 759 mmHg 61%
    20:00 +20°C° 0 mm 6 m/S 759 mmHg 66%
    21:00 +19°C° 0 mm 5 m/S 759 mmHg 70%
    22:00 +19°C° 0 mm 5 m/S 759 mmHg 71%
    23:00 +19°C° 0 mm 5 m/S 759 mmHg 72%

    2 März, Freitag

    Zeit Temperatur Niederschläge Wind Luftdruck Luftfeuchtigkeit
    00:00 +19°C° 0 mm 4 m/S 758 mmHg 73%
    01:00 +19°C° 0 mm 4 m/S 758 mmHg 72%
    02:00 +19°C° 0 mm 4 m/S 758 mmHg 70%
    03:00 +19°C° 0 mm 4 m/S 757 mmHg 68%
    04:00 +19°C° 0 mm 3 m/S 757 mmHg 66%
    05:00 +20°C° 0 mm 3 m/S 757 mmHg 64%
    06:00 +20°C° 0 mm 3 m/S 758 mmHg 62%
    07:00 +21°C° 0 mm 3 m/S 758 mmHg 57%
    08:00 +22°C° 0 mm 3 m/S 758 mmHg 53%
    09:00 +24°C° 0 mm 3 m/S 758 mmHg 48%
    10:00 +26°C° 0 mm 3 m/S 757 mmHg 41%
    11:00 +28°C° 0 mm 3 m/S 757 mmHg 35%
    12:00 +31°C° 0 mm 3 m/S 756 mmHg 29%
    13:00 +31°C° 0 mm 2 m/S 755 mmHg 27%
    14:00 +32°C° 0 mm 2 m/S 755 mmHg 25%
    15:00 +34°C° 0 mm 2 m/S 754 mmHg 23%
    16:00 +32°C° 0 mm 2 m/S 754 mmHg 25%
    17:00 +31°C° 0 mm 2 m/S 754 mmHg 26%
    18:00 +30°C° 0 mm 2 m/S 754 mmHg 27%
    19:00 +29°C° 0 mm 2 m/S 754 mmHg 30%
    20:00 +28°C° 0 mm 2 m/S 754 mmHg 32%
    21:00 +26°C° 0 mm 3 m/S 754 mmHg 34%
    22:00 +26°C° 0 mm 3 m/S 754 mmHg 34%
    23:00 +26°C° 0 mm 3 m/S 753 mmHg 34%
    Mehr zeigen